Back to catalog

COSMOS 1474

AliveNavigationLEO
NORAD 14172·PAYLOAD·🇷🇺 Russia

Launched Jul 6, 1983 from Plesetsk Cosmodrome

Loading…

Next Passes (next 24 hours)

TLE

FreshSource: Space-Track

Epoch: Sep 14, 2026, 22:44 UTC

1 14172U 83069B   26257.94740145 -.00000004  00000-0  74374-4 0  9991
2 14172  74.0266 310.9577 0033527 220.0605 316.9364 12.56677233981551

Track COSMOS 1474 in real time with AllMySat

Download on the App Store